This is the latest recevied weather packets stored in our database for station/object M0HZQ-1. If no packets are shown the sender has not sent any weather packets the latest 1 day(s).
| Time | Temp. | Humidity | Pressure | Rain* | Wind** | Luminosity | Snow |
|---|---|---|---|---|---|---|---|
| 1777989409 | 19.44° C | 36% | 1012.5 hPa | 0 mm | 0 m/s | - | - |
| 1777988304 | 20.56° C | 35% | 1012.6 hPa | 0 mm | 0 m/s | - | - |
| 1777987157 | 19.44° C | 37% | 1012.7 hPa | 0 mm | 0 m/s | - | - |
| 1777985984 | 18.89° C | 40% | 1012.8 hPa | 0 mm | 0 m/s | - | - |
| 1777985009 | 17.78° C | 41% | 1012.9 hPa | 0 mm | 0 m/s | - | - |
| 1777983994 | 18.89° C | 40% | 1012.9 hPa | 0 mm | 0 m/s | - | - |
| 1777982889 | 18.89° C | 41% | 1012.8 hPa | 0 mm | 0 m/s | - | - |
| 1777981874 | 17.78° C | 43% | 1012.9 hPa | 0 mm | 0 m/s | - | - |
| 1777980917 | 18.89° C | 43% | 1013 hPa | 0 mm | 0 m/s | - | - |
| 1777979769 | 17.78° C | 44% | 1013 hPa | 0 mm | 0 m/s | - | - |
| 1777978617 | 17.78° C | 44% | 1013.1 hPa | 0 mm | 0 m/s | - | - |
| 1777977594 | 17.78° C | 46% | 1013.1 hPa | 0 mm | 0 m/s | - | - |
| 1777976564 | 17.22° C | 47% | 1013.3 hPa | 0 mm | 0 m/s | - | - |
| 1777975469 | 16.67° C | 49% | 1013.4 hPa | 0 mm | 0 m/s | - | - |
| 1777974354 | 16.67° C | 51% | 1013.6 hPa | 0 mm | 0 m/s | - | - |
| 1777973364 | 17.22° C | 53% | 1013.6 hPa | 0 mm | 0 m/s | - | - |
| 1777972314 | 15.56° C | 55% | 1013.7 hPa | 0 mm | 0 m/s | - | - |
| 1777971354 | 15.56° C | 55% | 1013.7 hPa | 0 mm | 0 m/s | - | - |
| 1777970324 | 15° C | 57% | 1013.8 hPa | 0 mm | 0 m/s | - | - |
| 1777969339 | 14.44° C | 59% | 1013.7 hPa | 0 mm | 0 m/s | - | - |
| 1777968219 | 14.44° C | 59% | 1013.7 hPa | 0 mm | 0 m/s | - | - |
| 1777967249 | 14.44° C | 60% | 1013.6 hPa | 0 mm | 0 m/s | - | - |
| 1777966074 | 13.89° C | 61% | 1013.7 hPa | 0 mm | 0 m/s | - | - |
| 1777964994 | 14.44° C | 61% | 1013.8 hPa | 0 mm | 0 m/s | - | - |
| 1777963824 | 14.44° C | 62% | 1013.8 hPa | 0 mm | 0 m/s | - | - |
* Rain latest hour (hover to see other rain measurements)
** Current wind speed in m/s (hover to see current wind gust speed)